DW8969 Bellingham WA US current weather conditions

sailwx.info

Wind from 005 at 1 knots

Air temperature 4.4° C
Dewpoint 0.9° C

Last reported at 2019-Nov-21 18:01 UTC.
Time now 2019-Nov-21 18:55 UTC

Location: N 48°43' W 122°31'.
View on Google Maps.

See reports from other nearby stations

  
Tides and Currents Weather Stations Pressure Air Temp Water Temp Dewpoint Dewpoint Depression Visibility Wind Speed Wind Dir Waves Ship Positions
date/time (UTC)wind fromknots sea level pressurealtimeterstation pressurevisibilityair tempwater tempwave heightnotes
2019-Nov-21 18:01 005 1 4.4
2019-Nov-21 17:46 005 3.9
2019-Nov-21 17:31 070 1 3.9
2019-Nov-21 17:17 005 0 2.8
2019-Nov-21 17:01 057 2.2
2019-Nov-21 16:46 169 0 1.7
2019-Nov-21 16:31 167 1 1.1
2019-Nov-21 16:01 165 1 1.1
2019-Nov-21 15:45 165 0 0.6
2019-Nov-21 15:31 160 0 1.1
2019-Nov-21 15:15 150 0 1.1
2019-Nov-21 15:01 144 1 1.1
2019-Nov-21 14:45 158 1 0.6
2019-Nov-21 14:30 121 2 0.6
2019-Nov-21 14:16 169 2 0.6
2019-Nov-21 14:01 185 1 1.1
2019-Nov-21 13:46 156 0 1.1
2019-Nov-21 13:30 155 1 1.1
2019-Nov-21 13:16 170 0 1.1
2019-Nov-21 13:00 108 1 1.1
2019-Nov-21 12:45 132 1 1.1
2019-Nov-21 12:30 173 1 1.1
2019-Nov-21 12:15 161 0 1.1
2019-Nov-21 12:01 165 1 1.1
2019-Nov-21 11:45 125 0 1.7
2019-Nov-21 11:30 125 1 1.1
2019-Nov-21 11:15 161 2 1.1
2019-Nov-21 11:00 161 1 1.1
2019-Nov-21 10:45 154 2 1.1
2019-Nov-21 10:30 163 2 1.7
2019-Nov-21 10:15 182 2 1.7
2019-Nov-21 10:00 153 0 1.7
2019-Nov-21 09:45 167 2 1.1
2019-Nov-21 09:30 169 3 1.1
2019-Nov-21 09:15 169 1 1.7
2019-Nov-21 09:00 160 2 1.7
2019-Nov-21 08:45 178 2 1.7
2019-Nov-21 08:31 155 1 1.7
2019-Nov-21 08:17 144 1 1.7
2019-Nov-21 08:01 171 1 1.7
2019-Nov-21 07:47 160 3 1.7
2019-Nov-21 07:31 162 3 2.2
2019-Nov-21 07:17 156 0 3.9
2019-Nov-21 07:03 038 1 2.8
2019-Nov-21 06:46 177 3 2.2
2019-Nov-21 06:31 160 1 2.8
2019-Nov-21 06:18 169 1 3.3
2019-Nov-21 06:02 161 1 3.3
2019-Nov-21 05:46 113 2 2.8
2019-Nov-21 05:32 164 1 2.8
2019-Nov-21 05:16 140 3 3.3
2019-Nov-21 05:01 161 1 3.9
2019-Nov-21 04:45 133 1 3.3
2019-Nov-21 04:31 169 0 3.3
2019-Nov-21 04:15 163 2 3.3
2019-Nov-21 04:00 155 2 3.9
2019-Nov-21 03:30 175 2 3.9
2019-Nov-21 03:15 157 2 4.4
2019-Nov-21 03:01 200 2 4.4
2019-Nov-21 02:45 170 1 5.0
2019-Nov-21 02:30 169 1 5.0
2019-Nov-21 02:15 172 1 5.0
2019-Nov-21 02:00 169 0 5.6
2019-Nov-21 01:45 119 1 6.1
2019-Nov-21 01:30 128 1 6.7
2019-Nov-21 01:15 129 1 7.2
2019-Nov-21 01:00 161 1 7.8
2019-Nov-21 00:45 100 2 7.8
2019-Nov-21 00:30 203 3 8.9
2019-Nov-21 00:15 300 1 10.0
2019-Nov-21 00:00 295 3 9.4
2019-Nov-20 23:46 339 3 10.6
2019-Nov-20 23:31 025 4 10.6
2019-Nov-20 23:17 029 6 10.6
2019-Nov-20 23:01 011 8 10.6
2019-Nov-20 22:47 005 8 10.6
2019-Nov-20 22:31 355 6 11.1
2019-Nov-20 22:17 355 6 11.1
2019-Nov-20 22:01 350 6 11.1
2019-Nov-20 21:46 350 6 11.1
2019-Nov-20 21:31 023 7 11.1
2019-Nov-20 21:16 019 2 10.6
2019-Nov-20 21:02 355 5 11.1
2019-Nov-20 20:46 035 8 11.1
2019-Nov-20 20:31 029 8 11.1
2019-Nov-20 20:15 019 4 10.6
2019-Nov-20 20:01 017 7 10.6
2019-Nov-20 19:45 019 3 10.6
2019-Nov-20 19:30 019 6 10.0
2019-Nov-20 19:16 027 6 10.0
2019-Nov-20 19:01 021 6 9.4
2019-Nov-20 18:46 043 4 8.9
2019-Nov-20 18:30 044 6 8.9
2019-Nov-20 18:16 040 7 8.9
2019-Nov-20 18:00 025 6 8.9
2019-Nov-20 17:45 050 6 8.3
2019-Nov-20 17:30 051 10 8.3
2019-Nov-20 17:15 036 7 7.8
2019-Nov-20 17:00 360 6 7.2
2019-Nov-20 16:46 067 7 7.2
2019-Nov-20 16:31 044 8 7.2
2019-Nov-20 16:16 050 5 7.2
2019-Nov-20 16:00 017 3 7.2
2019-Nov-20 15:46 143 1 6.7
2019-Nov-20 15:31 134 1 6.7
2019-Nov-20 15:15 125 2 7.2
2019-Nov-20 15:00 063 2 6.7
2019-Nov-20 14:45 063 3 6.7
2019-Nov-20 14:30 071 5 7.2
2019-Nov-20 14:15 048 7 7.2
2019-Nov-20 14:00 051 7 7.2
2019-Nov-20 13:45 040 6 7.8
2019-Nov-20 13:30 057 7 7.8
2019-Nov-20 13:15 094 6 8.3
2019-Nov-20 13:00 051 6 7.8
2019-Nov-20 12:47 049 5 7.8
2019-Nov-20 12:31 059 5 7.8
2019-Nov-20 12:17 075 4 7.8
2019-Nov-20 12:02 059 6 8.3
2019-Nov-20 11:46 052 8 8.3
2019-Nov-20 11:33 043 10 8.9
2019-Nov-20 11:16 067 12 8.9
2019-Nov-20 11:01 057 11 8.9
2019-Nov-20 10:46 036 8 8.9
2019-Nov-20 10:31 032 7 8.9
2019-Nov-20 10:16 048 8 8.9
2019-Nov-20 10:01 042 8 8.9
2019-Nov-20 09:46 051 10 9.4
2019-Nov-20 09:31 068 11 10.0
2019-Nov-20 09:16 047 6 9.4
2019-Nov-20 09:00 055 6 9.4
2019-Nov-20 08:46 054 6 9.4
2019-Nov-20 08:30 036 6 9.4
2019-Nov-20 08:15 070 6 9.4
2019-Nov-20 08:00 059 5 9.4
2019-Nov-20 07:45 048 5 9.4
2019-Nov-20 07:30 054 3 8.9
2019-Nov-20 07:15 058 3 8.9
2019-Nov-20 07:00 046 5 9.4
2019-Nov-20 06:45 045 6 10.0
2019-Nov-20 06:30 053 5 9.4
2019-Nov-20 06:15 081 6 9.4
2019-Nov-20 06:00 066 2 8.3
2019-Nov-20 05:45 081 0 7.8
2019-Nov-20 05:30 069 2 8.3
2019-Nov-20 05:15 071 2 8.3
2019-Nov-20 05:02 071 3 8.3
2019-Nov-20 04:47 051 1 7.2
2019-Nov-20 04:33 059 0 6.7
2019-Nov-20 04:17 078 6.1
2019-Nov-20 04:01 178 6.1
2019-Nov-20 03:46 163 0 6.1
2019-Nov-20 03:33 131 6.7
2019-Nov-20 03:16 124 6.7
2019-Nov-20 03:02 160 0 6.7
2019-Nov-20 02:47 138 0 7.2
2019-Nov-20 02:31 126 0 7.2
2019-Nov-20 02:16 159 0 7.8
2019-Nov-20 02:00 103 1 8.9
2019-Nov-20 01:46 121 0 8.9
2019-Nov-20 01:31 355 3 9.4
2019-Nov-20 01:15 048 2 9.4
2019-Nov-20 01:00 013 6 9.4
2019-Nov-20 00:45 355 6 9.4
2019-Nov-20 00:30 345 9 9.4
2019-Nov-20 00:15 315 8 10.0
2019-Nov-20 00:00 301 7 10.0
2019-Nov-19 23:45 318 8 10.0
2019-Nov-19 23:30 290 7 10.0
2019-Nov-19 23:15 262 7 10.0
2019-Nov-19 23:00 295 7 10.0
2019-Nov-19 22:45 280 5 10.6
2019-Nov-19 22:34 322 9 10.6
2019-Nov-19 22:16 344 10 10.6
2019-Nov-19 22:01 324 9 10.6
2019-Nov-19 21:46 323 8 10.6
2019-Nov-19 21:31 322 6 10.6
2019-Nov-19 21:17 343 9 10.6
2019-Nov-19 21:02 329 10 10.0
2019-Nov-19 20:46 335 9 10.0
2019-Nov-19 20:31 342 8 10.0
2019-Nov-19 20:16 338 8 9.4
2019-Nov-19 20:01 348 9 9.4
2019-Nov-19 19:45 345 10 9.4
2019-Nov-19 19:31 338 8 9.4
2019-Nov-19 19:15 328 8 9.4
2019-Nov-19 19:01 340 8 9.4
2019-Nov-19 18:46 342 6 9.4
2019-Nov-19 18:31 360 8 8.9
2019-Nov-19 18:15 342 10 8.9
2019-Nov-19 18:00 342 8 8.9